Temperature
0 0 0 0 1 1 1 1 1 1 1 1 1 1 1 1 1 1 1 1 1 1 1 0 0 0 0 0 0 -0 -0 -0 -1 0 1 1 1 1 2 2 2 2 2
-0 -0 -0 -0 -0 -0 -0 -0 -0 -0 -0 -0 -0 0 0 0 0 0 0 0 0 -0 -0 -0 -0 -0 -1 -1 -1 -1 -1 -1 -1 -1 -0 0 0 0 1 1 1 1 1
-1 -1 -1 -1 -1 -1 -1 -1 -1 -1 -1 -1 -1 -1 -1 -1 -1 -1 -1 -1 -1 -1 -1 -1 -1 -1 -1 -1 -1 -1 -1 -2 -2 -2 -1 -1 -1 -0 -0 0 0 0 1
-2 -2 -2 -2 -2 -2 -2 -2 -2 -2 -2 -2 -2 -2 -2 -2 -1 -2 -2 -2 -2 -2 -2 -2 -2 -2 -2 -2 -2 -2 -2 -2 -2 -2 -2 -2 -2 -1 -1 -1 -1 -0 -0
-2 -2 -2 -2 -2 -3 -3 -3 -3 -3 -3 -3 -3 -2 -2 -2 -2 -3 -3 -3 -3 -3 -3 -3 -3 -3 -3 -3 -3 -3 -3 -3 -3 -3 -3 -3 -2 -2 -2 -2 -2 -1 -1
-3 -3 -3 -3 -3 -3 -3 -3 -3 -3 -3 -3 -3 -3 -3 -3 -3 -3 -4 -4 -4 -4 -4 -3 -4 -3 -3 -4 -4 -4 -4 -4 -4 -4 -4 -3 -3 -3 -3 -3 -3 -3 -2
-4 -4 -4 -4 -4 -4 -4 -4 -4 -4 -4 -4 -4 -4 -4 -4 -4 -4 -4 -5 -5 -5 -4 -4 -4 -4 -4 -4 -4 -4 -4 -4 -4 -4 -4 -4 -4 -3 -4 -3 -3 -3 -3
-4 -4 -4 -5 -5 -5 -5 -5 -5 -5 -5 -5 -5 -5 -5 -5 -5 -5 -5 -5 -5 -5 -5 -5 -5 -5 -5 -5 -5 -5 -5 -5 -4 -5 -5 -4 -4 -4 -4 -4 -4 -4 -4
-5 -5 -5 -5 -5 -5 -5 -5 -5 -6 -6 -6 -6 -6 -6 -5 -6 -6 -6 -6 -6 -6 -6 -6 -6 -6 -6 -6 -6 -6 -6 -5 -5 -5 -5 -5 -5 -5 -5 -5 -5 -5 -4
-5 -5 -6 -6 -6 -6 -6 -6 -6 -6 -6 -6 -6 -7 -7 -6 -6 -7 -7 -7 -7 -7 -7 -7 -7 -7 -7 -7 -7 -7 -7 -6 -6 -6 -5 -5 -5 -5 -5 -5 -5 -5 -5
-6 -6 -6 -6 -7 -7 -7 -7 -7 -7 -7 -7 -7 -7 -7 -7 -7 -7 -8 -8 -8 -8 -8 -8 -8 -8 -8 -8 -8 -8 -7 -7 -7 -7 -6 -6 -6 -6 -5 -5 -6 -6 -6
-7 -7 -7 -7 -7 -7 -8 -8 -8 -8 -8 -8 -8 -8 -8 -8 -8 -8 -8 -8 -9 -9 -9 -9 -8 -8 -8 -8 -8 -8 -8 -8 -8 -8 -7 -7 -7 -6 -6 -6 -6 -6 -6
-8 -8 -8 -8 -8 -8 -8 -8 -8 -8 -8 -9 -9 -9 -8 -8 -8 -9 -9 -9 -9 -9 -9 -9 -9 -9 -9 -9 -9 -9 -9 -9 -9 -8 -8 -8 -7 -7 -7 -7 -7 -6 -6
-8 -8 -8 -8 -8 -8 -9 -9 -9 -9 -9 -9 -9 -9 -9 -9 -9 -9 -9 -9 -9 -9 -9 -9 -9 -10 -9 -9 -9 -9 -9 -9 -9 -9 -9 -8 -8 -8 -8 -8 -7 -7 -7
-9 -9 -9 -9 -9 -9 -9 -9 -9 -9 -10 -10 -10 -10 -10 -10 -10 -10 -10 -10 -10 -10 -10 -10 -10 -10 -10 -10 -10 -9 -9 -9 -9 -9 -9 -9 -9 -9 -9 -8 -8 -8 -8
-9 -9 -9 -10 -10 -10 -10 -10 -10 -10 -10 -10 -10 -11 -11 -10 -10 -10 -10 -10 -10 -10 -10 -10 -10 -10 -10 -10 -10 -10 -10 -10 -10 -10 -10 -10 -10 -10 -10 -9 -9 -9 -9
-10 -10 -10 -10 -10 -10 -10 -10 -10 -10 -11 -11 -11 -11 -11 -11 -11 -11 -11 -11 -10 -10 -10 -11 -11 -11 -11 -11 -11 -11 -11 -10 -10 -10 -10 -10 -10 -10 -10 -10 -10 -10 -9
-10 -11 -11 -11 -11 -11 -11 -11 -11 -11 -11 -11 -11 -11 -11 -11 -11 -11 -11 -11 -11 -11 -11 -11 -11 -11 -11 -11 -11 -11 -11 -11 -11 -11 -11 -11 -11 -11 -11 -10 -10 -10 -10
-11 -11 -11 -11 -11 -11 -11 -11 -11 -12 -12 -12 -11 -11 -11 -11 -11 -11 -12 -12 -11 -11 -12 -12 -12 -12 -12 -12 -12 -11 -11 -11 -11 -11 -11 -11 -11 -11 -11 -11 -11 -11 -11
-11 -11 -11 -12 -12 -12 -12 -12 -12 -12 -12 -12 -12 -12 -12 -12 -12 -12 -12 -12 -12 -12 -12 -12 -12 -12 -12 -12 -12 -12 -12 -11 -11 -11 -11 -11 -11 -11 -11 -11 -11 -11 -11
-12 -12 -12 -12 -12 -12 -12 -12 -12 -12 -12 -12 -12 -12 -12 -12 -12 -12 -12 -12 -12 -12 -12 -12 -12 -12 -12 -12 -12 -12 -12 -12 -12 -12 -12 -12 -12 -12 -12 -12 -12 -11 -11
-12 -12 -12 -12 -12 -13 -13 -13 -13 -13 -13 -13 -13 -13 -13 -13 -13 -13 -13 -13 -12 -13 -13 -13 -12 -12 -12 -12 -12 -12 -12 -12 -12 -12 -12 -12 -12 -12 -12 -12 -12 -12 -11
-13 -13 -13 -13 -13 -13 -13 -13 -13 -13 -13 -13 -13 -13 -13 -13 -13 -13 -13 -13 -13 -13 -13 -13 -13 -12 -12 -12 -12 -12 -12 -12 -12 -12 -12 -12 -12 -12 -12 -12 -12 -12 -12
-13 -13 -13 -13 -13 -13 -13 -13 -13 -14 -14 -13 -13 -13 -13 -13 -13 -13 -13 -13 -13 -13 -13 -13 -13 -13 -13 -12 -12 -12 -12 -12 -12 -12 -12 -12 -12 -12 -12 -12 -12 -12 -12
-14 -14 -14 -14 -14 -14 -14 -14 -14 -14 -14 -14 -14 -14 -14 -14 -14 -14 -14 -14 -13 -13 -13 -13 -13 -13 -13 -13 -12 -12 -12 -12 -12 -12 -12 -12 -12 -12 -12 -12 -12 -12 -12
-14 -14 -14 -14 -14 -14 -14 -14 -14 -14 -14 -14 -14 -14 -14 -14 -14 -14 -14 -14 -14 -14 -13 -13 -13 -13 -13 -13 -12 -12 -12 -12 -12 -12 -13 -13 -12 -12 -12 -12 -12 -12 -12
Wind_Speed
4 4 3 3 3 3 3 3 2 2 1 1 1 1 1 1 1 1 2 2 2 2 2 3 3 2 2 2 2 3 3 3 7 7 5 5 5 6 7 8 8 9 10
4 4 4 3 3 3 3 2 2 2 2 2 2 2 2 2 2 2 2 2 3 4 3 3 4 3 4 3 3 4 4 4 5 8 7 5 6 6 6 6 7 9 10
3 4 4 4 4 4 3 3 2 2 2 2 2 2 2 2 3 3 3 3 3 4 4 4 5 4 5 4 4 4 4 5 5 6 7 5 5 5 5 5 6 7 9
3 4 4 4 4 4 3 3 3 2 2 2 3 3 3 3 4 3 3 3 3 4 4 4 5 5 6 5 5 5 5 5 5 6 7 6 5 5 4 5 6 5 6
3 3 3 3 3 3 3 3 3 3 3 3 2 2 3 3 4 4 3 4 4 4 5 5 6 7 8 7 7 5 5 5 5 6 7 6 6 5 6 5 7 6 6
3 3 2 2 3 3 3 3 3 3 3 2 3 3 4 4 6 7 6 4 5 5 6 5 6 7 9 11 12 11 9 8 7 7 7 8 8 7 6 6 6 6 7
2 2 2 3 3 3 3 3 3 3 3 3 3 3 4 5 7 8 8 5 5 6 6 6 7 7 9 6 9 11 11 13 12 10 10 11 9 8 7 8 8 8 9
2 3 3 3 3 3 3 3 3 3 3 3 4 4 5 6 8 8 8 5 5 6 7 7 7 7 8 7 7 7 8 9 10 9 10 11 10 9 9 10 10 9 8
3 3 3 3 3 3 4 4 3 3 3 4 4 4 5 6 8 8 8 4 5 7 7 7 8 8 11 11 8 8 9 8 10 13 14 15 16 16 13 8 7 7 9
3 3 3 3 4 4 4 4 3 3 4 4 4 4 5 6 8 9 8 5 6 6 6 7 9 10 12 12 8 7 9 9 8 8 9 11 12 13 15 11 9 9 8
3 2 2 3 3 4 4 3 3 3 3 4 5 5 5 7 8 9 9 5 5 6 6 6 6 11 13 13 11 8 11 10 7 7 7 7 7 7 8 9 9 9 9
2 2 2 2 3 3 3 3 3 3 3 4 4 5 4 5 7 8 10 10 9 7 7 6 7 11 12 13 11 11 12 10 6 6 7 8 7 7 7 7 9 10 11
2 2 2 2 2 3 3 3 3 3 3 3 4 4 4 4 5 9 10 11 11 8 7 9 11 12 11 9 11 12 10 7 6 7 8 8 7 7 6 6 7 8 10
2 2 2 2 2 2 3 3 3 3 4 4 4 4 4 4 4 5 5 6 8 7 7 9 10 11 9 9 8 8 6 7 7 8 8 7 6 6 6 6 7 6 7
2 2 2 2 2 2 2 3 4 4 5 5 5 5 5 5 7 9 7 6 5 6 6 5 5 5 5 5 5 5 5 6 7 7 7 7 7 7 7 6 6 6 8
2 2 2 2 2 2 2 2 4 4 6 7 7 7 6 8 10 11 11 11 10 9 6 5 5 5 6 6 6 6 5 6 6 7 7 7 7 7 7 6 6 7 8
2 2 2 2 2 2 2 2 3 3 5 6 7 8 8 9 10 10 10 10 8 7 4 4 5 6 6 6 6 6 7 6 6 7 7 7 7 8 8 8 7 7 8
1 2 2 2 2 2 3 3 3 3 3 4 5 7 8 8 9 9 9 7 5 4 4 5 5 5 5 6 6 6 6 6 6 6 7 7 7 8 8 8 8 8 9
1 1 2 2 2 2 2 2 3 3 4 4 4 5 7 7 8 7 6 4 4 4 5 5 5 5 6 6 6 6 7 7 7 7 7 8 8 8 8 8 8 11 10
1 3 3 2 2 2 2 2 3 3 3 4 4 4 4 4 4 4 4 4 4 5 5 5 6 6 6 6 6 6 7 7 8 8 8 8 8 8 9 10 9 9 9
2 2 4 3 2 2 2 3 3 3 3 4 4 5 6 4 4 4 4 4 4 5 5 6 6 6 6 6 6 7 8 8 8 7 7 8 8 8 8 8 9 9 9
1 2 2 2 2 2 2 2 2 3 3 4 4 5 7 4 3 4 4 5 5 5 5 6 6 6 6 6 6 7 7 8 8 7 8 8 8 8 8 9 9 9 9
1 2 2 2 2 3 3 2 2 3 3 4 4 4 4 4 4 4 5 5 5 5 6 6 6 7 7 8 8 8 8 8 8 8 8 8 8 8 8 9 10 10 10
1 2 2 2 2 2 2 3 3 3 3 4 4 4 4 4 5 5 5 5 5 6 7 7 8 9 10 10 10 10 11 12 11 10 11 9 9 9 8 9 10 10 10
1 2 2 2 3 3 3 3 3 3 4 4 4 4 5 5 5 5 5 5 6 7 8 9 9 9 11 12 12 12 13 15 14 12 11 9 9 9 9 9 9 9 9
2 2 2 2 3 3 3 4 4 4 4 5 5 5 5 5 6 6 6 6 6 7 8 9 10 12 13 12 13 14 15 15 15 15 11 8 8 8 8 8 9 9 9
Wind_Direction
174 176 173 174 170 162 171 178 173 166 162 185 197 229 251 274 299 254 250 240 239 252 253 244 254 255 258 260 253 255 255 252 265 279 279 283 283 286 289 283 284 284 286
179 172 174 169 161 170 181 187 180 185 192 203 210 225 245 262 258 245 256 263 248 247 251 249 257 260 257 253 248 254 255 252 260 277 286 284 279 280 281 276 285 284 283
171 170 171 174 177 184 188 186 194 201 211 218 217 221 239 253 256 254 248 256 259 258 253 248 251 249 255 257 254 259 263 267 258 265 279 282 282 284 290 284 281 280 283
169 174 185 192 195 195 189 187 200 208 209 218 230 237 246 256 257 257 260 261 260 264 263 259 255 248 250 249 255 253 259 263 262 263 271 278 280 282 283 280 284 276 277
181 188 203 201 193 191 193 195 203 213 226 233 239 247 254 257 252 250 253 254 255 261 263 261 263 261 259 258 259 252 250 257 261 264 268 274 274 280 280 275 274 282 274
191 201 200 192 191 196 201 200 203 211 219 224 231 237 245 258 261 261 262 255 257 256 262 265 265 264 262 266 267 265 257 253 255 262 268 264 270 268 275 271 273 278 279
200 206 200 195 200 205 208 207 213 219 224 231 238 238 247 254 258 262 264 264 257 256 256 259 266 266 271 266 269 274 270 263 258 257 259 261 267 264 269 268 263 263 267
200 207 210 205 210 211 211 219 225 228 228 235 245 244 250 257 263 266 268 265 258 256 254 253 256 261 263 264 265 268 267 267 264 260 257 261 263 261 260 262 263 268 273
214 217 216 212 215 219 223 228 233 233 245 245 249 246 249 262 264 266 268 258 257 258 257 255 254 256 261 265 265 267 272 274 274 269 267 268 268 268 265 269 267 267 270
231 231 222 215 219 228 233 237 242 241 248 252 260 256 252 257 262 265 266 256 258 264 265 262 259 261 264 266 260 258 265 272 277 283 281 278 275 270 264 254 254 259 267
241 238 232 226 228 234 238 240 232 245 251 252 260 265 259 260 264 265 267 260 253 263 268 267 264 267 269 270 269 262 265 274 276 276 278 277 277 273 266 256 248 248 254
230 230 237 237 237 237 228 238 237 232 240 250 258 269 267 265 266 267 268 269 267 262 264 267 266 268 271 272 271 269 274 279 275 275 275 274 273 272 272 268 259 253 253
231 232 238 245 239 231 224 228 233 229 233 247 251 263 271 273 268 271 274 275 274 273 270 270 273 275 276 274 272 272 273 270 265 266 268 271 273 275 276 277 272 266 265
230 241 235 230 239 239 237 229 227 230 235 244 251 261 269 275 275 272 270 277 277 276 273 273 276 277 277 276 275 271 264 260 261 263 269 273 276 275 274 274 275 271 272
226 241 243 239 234 247 255 248 247 246 240 246 252 254 260 268 271 275 278 277 272 268 271 267 264 267 268 270 271 268 264 263 265 264 268 272 273 274 274 273 272 272 267
224 237 235 235 240 241 254 289 290 275 274 272 269 269 269 270 276 278 280 283 284 284 281 267 262 262 263 265 269 272 270 266 265 266 267 268 270 271 274 274 270 266 267
220 236 238 234 235 240 243 249 281 301 292 282 279 279 279 280 282 285 287 289 287 289 283 269 267 264 264 265 267 268 270 269 268 266 265 266 269 270 271 271 269 267 269
246 253 256 242 241 241 243 245 249 264 286 293 291 287 286 287 290 292 293 299 290 285 271 268 271 269 267 267 267 268 271 273 271 267 266 266 266 267 268 268 267 265 268
279 259 250 244 245 243 246 251 253 258 266 282 296 295 295 295 295 297 301 289 278 276 276 271 271 271 270 269 268 267 268 268 269 268 268 267 266 265 265 266 267 271 271
292 290 289 265 255 254 248 249 255 259 266 273 281 291 297 300 295 296 295 284 277 277 276 275 275 272 270 269 269 268 268 268 267 266 265 266 266 265 265 267 267 268 268
287 290 302 302 278 270 261 254 256 259 265 271 278 285 292 289 283 284 285 281 277 277 277 277 276 275 273 272 270 268 268 268 267 266 266 266 265 266 266 266 267 268 269
285 279 279 280 281 277 271 262 261 267 270 276 285 292 300 306 295 291 290 288 286 280 276 277 278 274 269 268 267 266 266 268 269 268 267 267 266 265 265 265 266 268 268
295 297 298 296 291 290 298 291 282 279 283 284 288 295 299 297 295 293 291 292 291 288 285 279 278 277 275 271 268 261 262 264 265 265 267 267 266 264 263 263 264 268 267
290 292 294 297 301 296 291 288 285 285 285 289 292 293 295 295 295 295 295 295 293 292 290 286 279 277 279 281 278 273 269 270 270 266 262 264 266 265 263 263 264 264 264
293 288 286 285 290 290 289 288 288 292 295 296 296 296 297 297 297 299 299 296 294 293 292 291 286 283 283 283 282 281 280 282 281 275 265 259 261 261 262 262 263 265 263
285 284 282 282 283 282 282 284 287 290 291 292 292 291 292 294 295 297 299 298 299 297 294 292 290 289 288 286 286 287 287 287 286 284 277 262 260 263 265 263 262 261 263
Height
1488 1490 1492 1494 1495 1497 1499 1500 1502 1503 1504 1505 1506 1507 1508 1509 1509 1510 1510 1510 1511 1511 1512 1512 1512 1513 1513 1514 1514 1514 1514 1513 1510 1508 1509 1509 1508 1507 1507 1506 1506 1505 1504
1485 1487 1489 1490 1492 1493 1495 1497 1498 1499 1500 1501 1502 1503 1503 1504 1505 1505 1505 1505 1506 1506 1506 1507 1507 1508 1508 1508 1508 1508 1508 1508 1507 1503 1502 1503 1502 1502 1501 1500 1500 1499 1499
1482 1483 1485 1486 1488 1489 1491 1492 1493 1495 1496 1497 1498 1498 1498 1499 1499 1499 1500 1500 1500 1501 1501 1501 1502 1502 1502 1502 1502 1502 1503 1502 1501 1499 1497 1497 1496 1496 1495 1495 1494 1493 1493
1478 1479 1480 1482 1484 1485 1486 1488 1489 1490 1491 1492 1493 1493 1493 1494 1494 1494 1494 1494 1495 1495 1495 1496 1496 1496 1496 1497 1497 1497 1497 1496 1496 1494 1492 1491 1490 1490 1490 1489 1487 1487 1486
1474 1475 1476 1478 1480 1481 1482 1483 1484 1485 1486 1487 1488 1488 1488 1489 1489 1489 1489 1489 1489 1489 1489 1490 1490 1490 1491 1491 1491 1491 1491 1490 1490 1488 1487 1486 1485 1484 1484 1483 1482 1481 1480
1470 1471 1472 1474 1475 1476 1477 1478 1479 1480 1481 1482 1482 1483 1483 1483 1484 1484 1484 1484 1484 1483 1483 1484 1484 1484 1485 1485 1485 1485 1485 1485 1484 1483 1481 1480 1479 1479 1479 1478 1477 1475 1472
1466 1467 1469 1470 1471 1472 1473 1474 1474 1475 1476 1476 1477 1477 1478 1478 1479 1479 1479 1478 1478 1478 1477 1477 1477 1478 1478 1478 1478 1479 1478 1478 1478 1478 1476 1474 1474 1474 1474 1472 1471 1469 1467
1462 1464 1465 1466 1467 1467 1468 1469 1470 1470 1471 1471 1471 1472 1472 1472 1473 1473 1473 1472 1472 1471 1471 1471 1471 1471 1472 1472 1472 1471 1471 1471 1471 1470 1469 1468 1468 1468 1468 1467 1465 1463 1461
1458 1459 1461 1461 1462 1463 1463 1464 1465 1465 1466 1466 1466 1466 1466 1466 1467 1467 1467 1466 1465 1465 1465 1465 1465 1465 1465 1465 1465 1464 1463 1463 1464 1463 1462 1461 1461 1461 1461 1460 1458 1457 1453
1454 1455 1456 1457 1458 1458 1459 1459 1460 1461 1461 1461 1461 1461 1461 1461 1461 1462 1462 1461 1460 1459 1459 1459 1459 1459 1459 1459 1459 1458 1456 1456 1456 1455 1455 1454 1453 1453 1453 1453 1451 1450 1447
1450 1451 1452 1453 1454 1454 1454 1455 1455 1456 1456 1456 1456 1456 1456 1456 1456 1456 1456 1455 1454 1453 1453 1452 1452 1453 1453 1453 1453 1452 1451 1450 1449 1448 1447 1446 1446 1445 1445 1444 1444 1443 1442
1447 1447 1448 1449 1449 1449 1450 1450 1451 1451 1451 1451 1451 1450 1450 1451 1450 1450 1450 1450 1449 1448 1447 1447 1447 1447 1447 1447 1446 1445 1445 1444 1443 1441 1440 1439 1438 1437 1436 1436 1436 1435 1434
1443 1444 1444 1445 1445 1445 1446 1446 1446 1446 1446 1446 1446 1445 1445 1445 1445 1445 1445 1444 1444 1443 1442 1441 1441 1441 1440 1440 1439 1439 1438 1437 1436 1434 1433 1432 1431 1430 1429 1429 1428 1427 1426
1439 1439 1440 1440 1441 1441 1441 1441 1441 1441 1441 1441 1441 1440 1440 1439 1439 1439 1439 1439 1438 1437 1436 1436 1435 1435 1434 1433 1432 1432 1431 1430 1429 1428 1426 1426 1425 1424 1422 1422 1420 1419 1418
1435 1436 1436 1436 1437 1437 1437 1437 1437 1437 1437 1437 1436 1436 1435 1434 1434 1435 1434 1433 1433 1432 1431 1430 1429 1428 1427 1426 1426 1425 1424 1424 1423 1421 1420 1419 1418 1417 1415 1415 1414 1412 1411
1432 1432 1432 1432 1433 1432 1432 1432 1433 1433 1433 1432 1432 1432 1431 1430 1430 1429 1429 1428 1427 1427 1426 1424 1423 1422 1421 1420 1419 1418 1418 1417 1416 1415 1414 1413 1411 1410 1408 1408 1407 1405 1403
1428 1428 1429 1429 1429 1429 1428 1428 1427 1428 1428 1428 1427 1427 1426 1425 1425 1424 1423 1422 1421 1421 1419 1418 1417 1416 1415 1414 1413 1412 1411 1411 1410 1409 1408 1406 1405 1403 1402 1400 1399 1398 1396
1426 1426 1426 1425 1425 1425 1425 1424 1424 1423 1422 1422 1422 1422 1421 1420 1419 1418 1418 1417 1415 1415 1414 1413 1411 1410 1409 1408 1407 1406 1405 1404 1403 1402 1401 1399 1398 1397 1395 1394 1392 1391 1389
1423 1423 1423 1422 1422 1422 1421 1421 1420 1420 1419 1418 1417 1417 1416 1415 1415 1414 1413 1412 1410 1409 1408 1407 1406 1405 1403 1402 1401 1400 1399 1398 1397 1395 1394 1392 1391 1390 1388 1386 1385 1383 1382
1421 1420 1420 1419 1419 1418 1418 1417 1416 1416 1415 1414 1413 1412 1412 1411 1410 1409 1408 1407 1406 1404 1403 1402 1400 1399 1398 1396 1395 1394 1392 1391 1390 1388 1387 1386 1384 1383 1381 1379 1378 1376 1374
1418 1417 1417 1416 1416 1415 1414 1414 1413 1412 1411 1411 1410 1409 1408 1407 1406 1405 1403 1402 1401 1399 1398 1396 1395 1393 1392 1391 1389 1388 1386 1385 1383 1381 1380 1379 1377 1376 1374 1372 1371 1369 1367
1415 1415 1414 1413 1412 1412 1411 1410 1409 1409 1408 1407 1406 1405 1404 1403 1402 1400 1399 1397 1396 1394 1393 1391 1389 1387 1386 1385 1383 1381 1379 1378 1376 1375 1373 1372 1370 1368 1367 1365 1363 1362 1360
1413 1412 1411 1410 1409 1409 1408 1407 1406 1405 1404 1403 1402 1401 1400 1398 1397 1396 1394 1392 1391 1389 1387 1385 1383 1382 1380 1379 1377 1375 1373 1371 1370 1368 1366 1365 1363 1361 1360 1358 1356 1354 1352
1410 1409 1408 1407 1406 1405 1405 1404 1403 1402 1401 1400 1398 1397 1396 1394 1393 1391 1389 1387 1386 1384 1382 1380 1378 1376 1374 1373 1371 1369 1367 1365 1363 1361 1360 1358 1356 1354 1353 1351 1349 1347 1346
1407 1406 1405 1404 1403 1403 1402 1401 1400 1399 1397 1396 1395 1393 1392 1390 1388 1387 1385 1383 1381 1379 1377 1375 1373 1371 1368 1366 1364 1362 1360 1359 1357 1355 1353 1352 1349 1347 1346 1344 1342 1340 1339
1404 1403 1402 1401 1400 1400 1399 1398 1396 1395 1394 1393 1391 1390 1388 1386 1384 1382 1380 1378 1376 1374 1372 1370 1367 1365 1363 1360 1358 1356 1354 1352 1351 1349 1347 1345 1343 1341 1339 1337 1336 1334 1333